Cleveland Burke, OH

10:07 AM EDT on September 19, 2017 (GMT -0400)
Burke Lakefront

Weather History for KBKL - November, 2012

Change the Weather History Date:

Sunday, November 18, 2012

  Actual Average Record
Temperature  
Mean Temperature 44 °F -  
Max Temperature 55 °F 47 °F 73 °F (2016)
Min Temperature 34 °F 36 °F 12 °F (2014)
Degree Days  
Heating Degree Days 20    
Moisture  
Dew Point 32 °F    
Average Humidity 66    
Maximum Humidity 86    
Minimum Humidity 38    
Precipitation  
Precipitation 0.00 in - - ()
Sea Level Pressure  
Sea Level Pressure 30.49 in    
Wind  
Wind Speed 2 mph (SE)    
Max Wind Speed 9 mph    
Max Gust Speed -    
Visibility 9 miles    
Events      
Averages and records for this station are not official NWS values.
T = Trace of Precipitation, MM = Missing Value Source: NWS Daily Summary

Daily Weather History Graph

Daily Weather History Graph

Search for Another Location

Airport or City:

Trip Planner

Search our weather history database for the weather conditions in past years. The results will help you decide how hot, cold, wet, or windy it might be!

Date:

Astronomy

Nov. 18, 2012 Rise Set
Actual Time 7:19 AM EST 5:04 PM EST
Civil Twilight 6:49 AM EST 5:34 PM EST
Nautical Twilight 6:15 AM EST 6:07 PM EST
Astronomical Twilight 5:42 AM EST 6:40 PM EST
Moon 11:44 AM EST (11/18) 10:23 PM EST (11/18)
Length of Visible Light 10h 44m
Length of Day
9h 44m
Waxing Crescent, 30% of the Moon is Illuminated
Nov 18
Waxing Crescent
Nov 20
First Quarter
Nov 28
Full
Dec 6
Last Quarter
Dec 13
New

Hourly Weather History & Observations

Time (EST) Temp. Windchill Dew Point Humidity Pressure Visibility Wind Dir Wind Speed Gust Speed Precip Events Conditions
12:53 AM 39.0 °F - 34.0 °F 82% 30.54 in 5.0 mi Calm Calm - N/A   Haze
1:53 AM 36.0 °F - 32.0 °F 86% 30.53 in 6.0 mi Calm Calm - N/A   Clear
3:53 AM 36.0 °F - 32.0 °F 86% 30.53 in 5.0 mi Calm Calm - N/A   Clear
4:53 AM 34.0 °F - 30.0 °F 85% 30.53 in 5.0 mi Calm Calm - N/A   Clear
5:53 AM 37.9 °F - 30.9 °F 76% 30.53 in 8.0 mi Calm Calm - N/A   Clear
6:53 AM 37.0 °F 34.5 °F 28.9 °F 73% 30.53 in 10.0 mi SE 3.5 mph - N/A   Clear
7:53 AM 36.0 °F - 28.0 °F 73% 30.53 in 10.0 mi Calm Calm - N/A   Clear
8:53 AM 42.1 °F 38.4 °F 30.0 °F 62% 30.53 in 10.0 mi SSE 5.8 mph - N/A   Clear
9:53 AM 46.0 °F 42.5 °F 30.0 °F 54% 30.53 in 10.0 mi SSE 6.9 mph - N/A   Clear
10:53 AM 48.0 °F - 30.0 °F 50% 30.53 in 10.0 mi SSE 8.1 mph - N/A   Clear
11:53 AM 51.1 °F - 30.0 °F 44% 30.50 in 10.0 mi SSE 6.9 mph - N/A   Clear
12:53 PM 53.1 °F - 30.0 °F 41% 30.48 in 10.0 mi South 6.9 mph - N/A   Clear
1:53 PM 54.0 °F - 28.9 °F 38% 30.46 in 10.0 mi Variable 4.6 mph - N/A   Scattered Clouds
2:53 PM 55.0 °F - 30.9 °F 40% 30.45 in 10.0 mi Variable 4.6 mph - N/A   Scattered Clouds
3:53 PM 50.0 °F - 41.0 °F 71% 30.46 in 10.0 mi NNE 9.2 mph - N/A   Scattered Clouds
4:53 PM 46.0 °F 42.5 °F 42.1 °F 86% 30.46 in 10.0 mi NE 6.9 mph - N/A   Partly Cloudy
5:53 PM 45.0 °F - 41.0 °F 86% 30.46 in 10.0 mi Calm Calm - N/A   Clear
6:53 PM 44.1 °F 42.5 °F 39.0 °F 82% 30.46 in 10.0 mi ESE 3.5 mph - N/A   Clear
7:53 PM 46.9 °F - 30.9 °F 54% 30.45 in 10.0 mi SE 4.6 mph - N/A   Clear
8:53 PM 44.1 °F - 34.0 °F 68% 30.45 in 10.0 mi Calm Calm - N/A   Clear
9:53 PM 43.0 °F - 30.0 °F 60% 30.45 in 10.0 mi Calm Calm - N/A   Clear
10:53 PM 41.0 °F - 28.9 °F 62% 30.43 in 10.0 mi Calm Calm - N/A   Clear
11:53 PM 42.1 °F - 28.9 °F 60% 30.44 in 10.0 mi Calm Calm - N/A   Clear